Simultaneous Nadir Overpasses (SNOs) Predictions

Prediction of SNOs between GOES-15 and FY3D Satellite Orbit:

Table of predicted SNOs for the next 14.0 days since TLE Epoch: 12/1/2024
Index Date Time (GOES-15) GOES-15 Lat,Lon FY3D Lat,Lon Distance(km) Time Diff (sec)
1 12/01/2024 10:34:10 0.04, 61.59 0.40, 63.22 186.13 80
2 12/02/2024 22:56:02 -0.06, 61.47 0.71, 57.96 399.35 80
3 12/03/2024 22:34:38 -0.04, 61.47 -0.26, 62.51 118.88 80
4 12/05/2024 10:56:38 0.06, 61.57 -0.91, 57.23 494.15 80
5 12/06/2024 10:40:35 0.05, 61.56 0.12, 61.77 24.54 80
6 12/08/2024 22:43:43 -0.06, 61.44 0.03, 61.07 42.55 80
7 12/09/2024 22:22:21 -0.05, 61.44 -1.01, 65.61 475.32 80
8 12/11/2024 10:44:19 0.06, 61.56 -0.19, 60.34 138.61 80
9 12/12/2024 10:28:15 0.05, 61.56 0.80, 64.88 379.53 80
10 12/13/2024 22:50:06 -0.06, 61.44 0.36, 59.64 205.61 80
11 12/14/2024 22:28:42 -0.05, 61.45 -0.64, 64.19 311.69 80
